Sandpoint, ID

10:52 AM PDT on September 28, 2016 (GMT -0700)
Sandpoint

Weather History for KSZT - February, 2014

Change the Weather History Date:

Tuesday, February 18, 2014

  Actual Average Record
Temperature  
Mean Temperature 34 °F -  
Max Temperature 37 °F 38 °F 46 °F (2016)
Min Temperature 32 °F 25 °F 23 °F (2015)
Degree Days  
Heating Degree Days 30    
Moisture  
Dew Point 32 °F    
Average Humidity 94    
Maximum Humidity 100    
Minimum Humidity 75    
Precipitation  
Precipitation 0.00 in - - ()
Sea Level Pressure  
Sea Level Pressure 29.77 in    
Wind  
Wind Speed 6 mph (SW)    
Max Wind Speed 14 mph    
Max Gust Speed 23 mph    
Visibility 8 miles    
Events Rain , Snow    
Averages and records for this station are not official NWS values.
T = Trace of Precipitation, MM = Missing Value Source: NWS Daily Summary

Daily Weather History Graph

Daily Weather History Graph

Search for Another Location

Airport or City:

Trip Planner

Search our weather history database for the weather conditions in past years. The results will help you decide how hot, cold, wet, or windy it might be!

Date:

Astronomy

Feb. 18, 2014 Rise Set
Actual Time 6:47 AM PST 5:13 PM PST
Civil Twilight 6:15 AM PST 5:45 PM PST
Nautical Twilight 5:39 AM PST 6:21 PM PST
Astronomical Twilight 5:03 AM PST 6:57 PM PST
Moon 9:33 PM PST (2/18) 8:02 AM PST (2/18)
Length of Visible Light 11h 29m
Length of Day
10h 25m
Waning Gibbous, 86% of the Moon is Illuminated
Feb 18
Waning Gibbous
Feb 22
Last Quarter
Mar 1
New
Mar 8
First Quarter
Mar 16
Full

Hourly Weather History & Observations

Time (PST) Temp. Windchill Dew Point Humidity Pressure Visibility Wind Dir Wind Speed Gust Speed Precip Events Conditions
12:15 AM 35.6 °F 31.7 °F 28.4 °F 75% 29.85 in 10.0 mi WSW 4.6 mph - N/A   Mostly Cloudy
12:35 AM 35.6 °F 31.7 °F 28.4 °F 75% 29.86 in 10.0 mi SW 4.6 mph - N/A   Mostly Cloudy
12:55 AM 33.8 °F 29.6 °F 30.2 °F 87% 29.87 in 10.0 mi SSW 4.6 mph - N/A   Mostly Cloudy
1:15 AM 33.8 °F 28.6 °F 30.2 °F 87% 29.88 in 10.0 mi SSW 5.8 mph - N/A   Mostly Cloudy
1:35 AM 32.0 °F 24.8 °F 30.2 °F 93% 29.88 in 10.0 mi South 8.1 mph - N/A   Mostly Cloudy
1:55 AM 32.0 °F 27.5 °F 30.2 °F 93% 29.89 in 10.0 mi SSW 4.6 mph - N/A   Mostly Cloudy
2:15 AM 32.0 °F - 30.2 °F 93% 29.89 in 10.0 mi Calm Calm - N/A   Mostly Cloudy
2:35 AM 32.0 °F 27.5 °F 30.2 °F 93% 29.90 in 10.0 mi SW 4.6 mph - N/A   Scattered Clouds
2:55 AM 32.0 °F 26.4 °F 32.0 °F 100% 29.90 in 10.0 mi South 5.8 mph - N/A   Mostly Cloudy
3:15 AM 32.0 °F 27.5 °F 30.2 °F 93% 29.90 in 10.0 mi SSW 4.6 mph - N/A   Mostly Cloudy
3:35 AM 32.0 °F 25.6 °F 30.2 °F 93% 29.91 in 10.0 mi SSW 6.9 mph - N/A   Scattered Clouds
3:55 AM 32.0 °F 27.5 °F 30.2 °F 93% 29.91 in 10.0 mi SSW 4.6 mph - N/A   Clear
4:15 AM 32.0 °F 26.4 °F 30.2 °F 93% 29.92 in 10.0 mi South 5.8 mph - N/A   Mostly Cloudy
4:35 AM 32.0 °F 26.4 °F 30.2 °F 93% 29.94 in 10.0 mi SSW 5.8 mph - N/A   Mostly Cloudy
4:55 AM 32.0 °F 28.7 °F 28.4 °F 87% 29.94 in 10.0 mi SSW 3.5 mph - N/A   Scattered Clouds
5:15 AM 32.0 °F 25.6 °F 28.4 °F 87% 29.94 in 10.0 mi SSW 6.9 mph - N/A   Scattered Clouds
5:35 AM 32.0 °F 24.8 °F 28.4 °F 87% 29.94 in 10.0 mi SW 8.1 mph - N/A   Scattered Clouds
5:55 AM 32.0 °F 25.6 °F 28.4 °F 87% 29.94 in 10.0 mi SW 6.9 mph - N/A   Mostly Cloudy
6:15 AM 32.0 °F 26.4 °F 28.4 °F 87% 29.94 in 10.0 mi SW 5.8 mph - N/A   Overcast
6:35 AM 33.8 °F 28.6 °F 28.4 °F 81% 29.94 in 10.0 mi SW 5.8 mph - N/A   Overcast
6:55 AM 33.8 °F 29.6 °F 28.4 °F 81% 29.94 in 10.0 mi SSW 4.6 mph - N/A   Overcast
7:15 AM 32.0 °F 26.4 °F 32.0 °F 100% 29.94 in 10.0 mi SSW 5.8 mph - N/A   Overcast
7:35 AM 33.8 °F 27.7 °F 30.2 °F 87% 29.95 in 10.0 mi WSW 6.9 mph - N/A   Overcast
7:55 AM 33.8 °F 27.7 °F 32.0 °F 93% 29.94 in 10.0 mi SW 6.9 mph - N/A Snow Light Snow
8:15 AM 33.8 °F 28.6 °F 32.0 °F 93% 29.94 in 10.0 mi SW 5.8 mph - N/A   Mostly Cloudy
8:35 AM 33.8 °F 27.7 °F 32.0 °F 93% 29.94 in 10.0 mi SW 6.9 mph - N/A   Clear
8:55 AM 35.6 °F 29.9 °F 32.0 °F 87% 29.94 in 10.0 mi SW 6.9 mph - N/A   Mostly Cloudy
9:15 AM 35.6 °F 29.9 °F 32.0 °F 87% 29.94 in 10.0 mi SSW 6.9 mph - N/A   Overcast
9:35 AM 35.6 °F 29.9 °F 33.8 °F 93% 29.93 in 10.0 mi SW 6.9 mph - N/A   Light Drizzle
9:55 AM 35.6 °F 31.7 °F 35.6 °F 100% 29.93 in 5.0 mi SSW 4.6 mph - N/A Rain Rain
10:15 AM 33.8 °F 28.6 °F 33.8 °F 100% 29.92 in 7.0 mi SW 5.8 mph - N/A Rain Light Rain
10:35 AM 33.8 °F 29.6 °F 33.8 °F 100% 29.91 in 7.0 mi South 4.6 mph - N/A   Drizzle
10:55 AM 33.8 °F 30.8 °F 33.8 °F 100% 29.90 in 7.0 mi South 3.5 mph - N/A   Drizzle
11:15 AM 35.6 °F 31.7 °F 35.6 °F 100% 29.89 in 10.0 mi SW 4.6 mph - N/A   Light Drizzle
11:35 AM 35.6 °F 30.7 °F 35.6 °F 100% 29.87 in 10.0 mi SW 5.8 mph - N/A   Light Drizzle
11:55 AM 35.6 °F 31.7 °F 35.6 °F 100% 29.87 in 10.0 mi SW 4.6 mph - N/A Rain Light Rain
12:15 PM 35.6 °F 31.7 °F 35.6 °F 100% 29.84 in 10.0 mi SSW 4.6 mph - N/A Rain Rain
12:35 PM 35.6 °F 31.7 °F 35.6 °F 100% 29.82 in 10.0 mi WSW 4.6 mph - N/A   Light Drizzle
12:55 PM 35.6 °F 31.7 °F 35.6 °F 100% 29.80 in 10.0 mi SW 4.6 mph - N/A   Overcast
1:15 PM 35.6 °F 31.7 °F 35.6 °F 100% 29.79 in 10.0 mi SW 4.6 mph - N/A   Overcast
1:35 PM 35.6 °F 29.9 °F 35.6 °F 100% 29.77 in 10.0 mi WSW 6.9 mph - N/A Rain Light Rain
1:55 PM 35.6 °F 29.2 °F 35.6 °F 100% 29.75 in 10.0 mi WSW 8.1 mph - N/A Rain Light Rain
2:15 PM 35.6 °F 31.7 °F 35.6 °F 100% 29.74 in 5.0 mi SSW 4.6 mph - N/A Rain Light Rain
2:35 PM 35.6 °F 32.8 °F 35.6 °F 100% 29.71 in 7.0 mi SW 3.5 mph - N/A Rain Rain
2:55 PM 35.6 °F 32.8 °F 35.6 °F 100% 29.69 in 7.0 mi WSW 3.5 mph - N/A Rain Light Rain
3:15 PM 35.6 °F 31.7 °F 35.6 °F 100% 29.68 in 5.0 mi WSW 4.6 mph - N/A Rain Light Rain
3:35 PM 35.6 °F 31.7 °F 35.6 °F 100% 29.66 in 5.0 mi WSW 4.6 mph - N/A Rain Light Rain
3:55 PM 33.8 °F 29.6 °F 33.8 °F 100% 29.64 in 4.0 mi WSW 4.6 mph - N/A Rain Rain
4:15 PM 33.8 °F 30.8 °F 33.8 °F 100% 29.62 in 3.0 mi WSW 3.5 mph - N/A Rain Light Rain
4:35 PM 32.0 °F 28.7 °F 32.0 °F 100% 29.59 in 2.5 mi WSW 3.5 mph - N/A Snow Light Snow
4:55 PM 32.0 °F - 32.0 °F 100% 29.58 in 2.5 mi Calm Calm - N/A Snow Light Snow
5:15 PM 32.0 °F - 32.0 °F 100% 29.56 in 4.0 mi Calm Calm - N/A Snow Light Snow
5:35 PM 32.0 °F 27.5 °F 32.0 °F 100% 29.55 in 3.0 mi South 4.6 mph - N/A Snow Light Snow
5:55 PM 32.0 °F 26.4 °F 32.0 °F 100% 29.54 in 5.0 mi South 5.8 mph - N/A   Overcast
6:15 PM 32.0 °F 25.6 °F 32.0 °F 100% 29.53 in 3.0 mi SSE 6.9 mph - N/A Snow Light Snow
6:35 PM 32.0 °F 27.5 °F 32.0 °F 100% 29.52 in 1.5 mi South 4.6 mph - N/A Snow Light Snow
6:55 PM 32.0 °F 26.4 °F 32.0 °F 100% 29.51 in 1.5 mi South 5.8 mph - N/A Snow Light Snow
7:15 PM 32.0 °F 28.7 °F 32.0 °F 100% 29.49 in 3.0 mi South 3.5 mph - N/A   Overcast
7:35 PM 32.0 °F 27.5 °F 32.0 °F 100% 29.48 in 5.0 mi SSE 4.6 mph - N/A Snow Light Snow
7:55 PM 32.0 °F 26.4 °F 32.0 °F 100% 29.48 in 7.0 mi South 5.8 mph - N/A   Overcast
8:15 PM 32.0 °F 27.5 °F 32.0 °F 100% 29.47 in 7.0 mi SSW 4.6 mph - N/A   Overcast
8:35 PM 33.8 °F 27.7 °F 33.8 °F 100% 29.48 in 10.0 mi SW 6.9 mph - N/A   Overcast
8:55 PM 35.6 °F 27.1 °F 35.6 °F 100% 29.48 in 10.0 mi SSW 12.7 mph 18.4 mph N/A   Overcast
9:55 PM 37.4 °F 29.8 °F 32.0 °F 81% 29.54 in 10.0 mi SW 11.5 mph 19.6 mph N/A   Overcast
10:15 PM 37.4 °F 29.3 °F 32.0 °F 81% 29.55 in 10.0 mi SSW 12.7 mph 19.6 mph N/A   Overcast
10:35 PM 37.4 °F 28.9 °F 32.0 °F 81% 29.56 in 10.0 mi SW 13.8 mph 23.0 mph N/A   Overcast
10:55 PM 35.6 °F 27.5 °F 32.0 °F 87% 29.57 in 10.0 mi WSW 11.5 mph 21.9 mph N/A   Overcast
11:15 PM 35.6 °F 26.6 °F 30.2 °F 81% 29.58 in 10.0 mi SW 13.8 mph 20.7 mph N/A   Overcast
11:35 PM 35.6 °F 26.6 °F 30.2 °F 81% 29.60 in 10.0 mi SW 13.8 mph 18.4 mph N/A   Overcast
11:55 PM 35.6 °F 28.0 °F 28.4 °F 75% 29.61 in 10.0 mi SW 10.4 mph 17.3 mph N/A   Overcast